Tracking 30986 objects as of 9-Jul-2025
HD Live streaming from Space Station
objects crossing your sky now

COSMOS 1249 COOLANT

Track COSMOS 1249 COOLANT now!
10-day predictions


NORAD ID: 26508
Int'l Code: 1981-021K
Perigee: 889.3 km
Apogee: 967.7 km
Inclination: 65.0 °
Period: 103.4 minutes
Semi major axis: 7299 km
RCS: 0.0061 m2 (small)
Launch date: March 5, 1981
Source: Commonwealth of Independent States (former USSR) (CIS)
Launch site: TYURATAM MISSILE AND SPACE COMPLEX (TTMTR)

Note: This is SATELLITE DEBRIS
Your satellite tracking list
Your tracking list is empty




NASA's NSSDC Master Catalog

Two Line Element Set (TLE):
1 26508U 81021K   25186.26412100  .00000098  00000-0  14616-3 0  9999
2 26508  64.9651 133.7460 0053704 329.7401 101.6307 13.92079419610373
Source of the keplerian elements: AFSPC